map of NVT home
NVT - Airport
Location
City:  Navegantes, Santa Catarina, Brazil
Name:Ministro Victor Konder International Airport
ICAO:SBNF
IATA:NVT

Details
Type:Airport (Aerodrome, Airfield)
Use:Public/Civil, International (customs port of entry)
Latitude:26°52'43"S (-26.878610)
Longitude:48°39'03"W (-48.650832)
Elevation:16 ft (5 m)
Variation:19.37°W (WMM2015 magnetic declination)
-0.14° annual change
Runways:1
Longest:5581 × 148 ft (1701 × 45 m), paved

Time
Time Zone:UTC-3 (DST-2)
Local Time:

Weather
METAR:SBNF 050200Z 21005KT 9999 BKN030 20/// Q1009
TAF:SBNF 050330Z 0506/0606 21005KT 9999 BKN030 TN18/0506Z TX26/0516Z
TEMPO 0506/0510 24016KT BKN010 BKN020
BECMG 0512/0514 19010KT SCT025
BECMG 0518/0520 21008KT CAVOK
RMK PDV

Related Locations
Nearby:
Farthest:KTD: 12366 mi / 19900 km
Kitadaito [Kitadaito Airport], Kitadaito Island, 47, JP

Find:

   beyond  
but within

Other Information
Maps:
NOTAMs:
Links:
Sources:

  
flag of Brazil
flag of Santa Catarina
  

Sectional Chart

Flight Planning
at skyvector.com

Satellite Image

Google Maps Satellite view

 

Copyright © 2004-2016 Karl L. Swartz. All rights reserved.
The Great Circle Mapper name and logo are trademarks of the Great Circle Mapper.
All other trademarks mentioned herein belong to their respective owners.
Please see credits for attibutions and further copyright information.

  Follow gcmap on Facebook Follow gcmap on Twitter Follow gcmap on Google+ GCmap on LinkedIn

hCard Microformat

Geo Microformat